{"data":{"norad_id":67124,"intl_designator":"2025-299Y","name":"STARLINK-36195","alt_names":[],"object_type":"PAYLOAD","status":"ACTIVE","operator":null,"country":"US","launch_date":"2025-12-15","launch_site_code":"AFETR","launch_vehicle":null,"mission":null,"orbit_class":"UNKNOWN","rcs_meters":null,"size_class":null,"mass_kg":null,"dimensions":null,"purposes":["comms"],"wikipedia_slug":null,"has_3d_model":false,"image_url":null,"decayed_at":null,"tle_current":{"epoch":"2026-05-25T04:54:47.566080Z","epoch_age_seconds":53800,"freshness":"FRESH","line1":"1 67124U 25299Y   26145.20471720  .00017158  00000+0  63141-3 0  9997","line2":"2 67124  43.0004  96.4058 0001542 262.6580  97.4096 15.27587496 24821","mean_motion":15.27587496,"eccentricity":0.0001542,"inclination_deg":43.0004,"raan_deg":96.4058,"arg_perigee_deg":262.658,"mean_anomaly_deg":97.4096,"bstar":0.00063141,"rev_number":2482,"period_min":94.266286138807,"perigee_km":481.96865897587,"apogee_km":484.08464184566,"semimajor_km":6861.1636504108,"source":"CELESTRAK","updated_at":"2026-05-25T13:38:21.477544Z"}}}